Tracking 22881 objects as of 20-Apr-2021
HD Live streaming from Space Station
objects crossing your sky now

STARLINK-2068

Track STARLINK-2068 now!
10-day predictions
STARLINK-2068 is classified as:


NORAD ID: 47722
Int'l Code: 2021-017A
Perigee: 356.1 km
Apogee: 357.6 km
Inclination: 53.0 °
Period: 91.5 minutes
Semi major axis: 6727 km
RCS: Unknown
Launch date: March 4, 2021
Source: United States (US)
Launch site: AIR FORCE EASTERN TEST RANGE (AFETR)
aabbcc
Your satellite tracking list
Your tracking list is empty




NASA's NSSDC Master Catalog

Two Line Element Set (TLE):
1 47722U 21017A   21109.83334491  .00024161  00000-0  17594-3 0  9994
2 47722  53.0462 312.8827 0001104  72.5277  33.0999 15.73213771  7952
Source of the keplerian elements: AFSPC